Preview of NWS' New Version of Forecast
This preview is not operational and should not be used for support decisions.

Regional Weather Roundup (RWR)

Issued by National Weather Service (NWS)

                            
000
ASUS43 KLSX 262107
RWRMO 

WEATHER SUMMARY FOR MISSOURI
NATIONAL WEATHER SERVICE SPRINGFIELD MO
400 PM CDT TUE MAR 26 2019

NOTE: "FAIR" INDICATES FEW OR NO CLOUDS BELOW 12,000 FEET WITH NO
       SIGNIFICANT WEATHER AND/OR OBSTRUCTIONS TO VISIBILITY.
       CURRENT SKY AND/OR WEATHER CONDITIONS ARE NOT AVAILABLE FOR
       CHILLICOTHE AND FARMINGTON.

MOZ001>031-035>038-043-044-053-054-262200-
...NORTHERN AND WESTERN MISSOURI...
  
CITY           SKY/WX    TMP DP  RH WIND       PRES   REMARKS
KANSAS CTY INT MOSUNNY   59  39  47 SW7       30.31F                  
KANSAS C DTWN  SUNNY     63  39  41 MISG      30.30F                  
LEE'S SUMMIT   MOSUNNY   60  38  43 CALM      30.32F                  
ST JOSEPH      MOSUNNY   61  41  47 SW9       30.30F                  
CHILLICOTHE      N/A     57  36  45 CALM      30.34F                  
KIRKSVILLE     SUNNY     53  28  38 MISG      30.36F                  
     
$$
MOZ066>068-077>081-088>096-101>105-262200-
...SOUTHWEST MISSOURI...
  
CITY           SKY/WX    TMP DP  RH WIND       PRES   REMARKS
SPRINGFIELD    SUNNY     62  38  40 N8G18     30.31F                  
JOPLIN         SUNNY     63  39  41 N5        30.33F                  
BRANSON        PTSUNNY   61  36  39 NE7       30.32F                  
               
$$
MOZ032>034-039>042-045>050-055>058-069>072-262200-
...CENTRAL MISSOURI...  
  
CITY           SKY/WX    TMP DP  RH WIND       PRES   REMARKS
COLUMBIA       SUNNY     56  21  25 N7        30.35F                  
JEFFERSON CITY SUNNY     58  20  22 NE7       30.35F                  
ROLLA          SUNNY     56  19  23 N8        30.34F                  
SEDALIA        SUNNY     58  35  42 MISG      30.35F                  
WHITEMAN AFB   MOSUNNY   60  37  42 CALM      30.29F                  
WARRENSBURG    SUNNY     59  36  41 NW5       30.33F                  
OSAGE BEACH    SUNNY     58  32  37 W6        30.35F                  
               
$$
MOZ051-052-059>065-262200-
...EAST CENTRAL MISSOURI...
  
CITY           SKY/WX    TMP DP  RH WIND       PRES   REMARKS
ST LOUIS INTL  MOSUNNY   53  24  32 N3        30.38F                  
SPIRIT OF STL  SUNNY     54  27  35 E7        30.36F                  
ST CHARLES     SUNNY     54  29  38 E5        30.37F                  
                   
$$
MOZ072>076-082>087-097>100-106>115-262200-
...SOUTH CENTRAL AND SOUTHEAST MISSOURI...
  
CITY           SKY/WX    TMP DP  RH WIND       PRES   REMARKS
CAPE GIRARDEAU FAIR      55  23  28 NE13G18   30.35S                  
FARMINGTON     SUNNY     52  26  36 VRB3      30.36F                  
POPLAR BLUFF   FAIR      56  34  43 N7        30.34S                  
WEST PLAINS    SUNNY     59  36  42 NE12G17   30.32F                  
                                       
$$